Regional Weather Roundup
Issued by NWS

Home | Current Version | Previous Version | Graphics & Text | Print | Product List | Glossary On
Versions: 1 2 3 4 5 6 7 8 9 10 11 12 13 14 15 16 17 18 19 20 21 22 23 24 25 26 27 28 29 30 31 32 33 34 35 36 37 38 39 40 41 42 43 44 45 46 47 48 49 50
759
ASUS45 KBOU 191410
RWRCO

WEATHER ROUNDUP FOR COLORADO
NATIONAL WEATHER SERVICE DENVER/BOULDER CO
700 AM MST MON FEB 19 2018

NOTE: "FAIR" INDICATES FEW OR NO CLOUDS BELOW 12000 FEET WITH NO
SIGNIFICANT WEATHER AND/OR OBSTRUCTIONS TO VISIBILITY.

COZ001>005-013-030-031-191500-
...NORTHWEST COLORADO...

CITY           SKY/WX    TMP DP  RH WIND       PRES   REMARKS
CRAIG          LGT SNOW  26  22  84 E3        29.32F FOG
HAYDEN         MOCLDY    35  24  64 SW15G28   29.33S WCI  25
MEEKER         FAIR      36  26  67 S20G29    29.31F
RANGELY        CLOUDY    38  31  76 S12G17    29.31S
RABBIT EARS PA LGT SNOW  21  19  93 MISG      29.32F VSB 3/4
STEAMBOAT SPGS FAIR      33  26  76 SE22G28   29.32F WCI  21
WALDEN         CLOUDY    30  21  69 S18G26    29.35F WCI  18
$$

COZ006>008-011-191500-
...WEST CENTRAL VALLEYS...

CITY           SKY/WX    TMP DP  RH WIND       PRES   REMARKS
GRAND JUNCTION MOCLDY    47  24  40 S20G37    29.35F
MONTROSE       CLOUDY    41  26  55 S18       29.49F
EAGLE          FAIR      37  24  59 W10G25    29.41F
RIFLE          MOCLDY    42  27  55 S13G24    29.39S
DELTA          CLOUDY    48  23  36 SW16G28   29.44F
NUCLA          NOT AVBL
$$

COZ017>023-064>068-191500-
...SOUTHWEST COLORADO...

CITY           SKY/WX    TMP DP  RH WIND       PRES   REMARKS
DURANGO        CLOUDY    36  33  89 SE7       29.61F
CORTEZ         CLOUDY    44  27  51 S21G29    29.55F
PAGOSA SPRINGS LGT SNOW  35  32  90 SW10      29.64S WCI  27
TELLURIDE      LGT SNOW  31  20  62 S5G28     29.55F WCI  26
WOLF CREEK PAS CLOUDY    19  19 100 S26G43    29.61R WCI   1
$$

COZ009-010-012-014-032>034-037-058>063-191500-
...CENTRAL COLORADO...

CITY           SKY/WX    TMP DP  RH WIND       PRES   REMARKS
ASPEN          FLURRIES  33  24  69 SW7       29.43F WCI  27
BUENA VISTA    MOCLDY    32  20  60 SE17G24   29.47F WCI  21
COPPER MTN     LGT SNOW  23  18  80 S23G30    29.46F VSB 1   WCI   7
BERTHOUD PASS  FAIR      14   3  62 SW21G35   29.44F WCI  -4
COTTONWOOD PAS FLURRIES  34  19  55 W6G18     29.49F WCI  29
GUNNISON       FLURRIES  24  18  77 CALM      29.51F
GRANBY         FAIR      21  15  76 E7        29.40F WCI  13
KREMMLING      FAIR      41  21  45 SW17      29.40F
LEADVILLE      MIX PCPN  25  16  68 S20G29    29.44F WCI  11
MONARCH PASS   FAIR      18  14  86 SW49G61   29.59F WCI  -6
SALIDA         FAIR      37  23  57 S14G24    29.56F
SUNLIGHT       SNOW      19  18  93 SW17G35   29.44S VSB 1/2 WCI   4
WILKERSON PASS FAIR      21  14  73 S10G24    29.51S WCI  10
$$

COZ069>075-191500-
...SAN LUIS VALLEY/SANGRE DE CRISTO MOUNTAINS...

CITY           SKY/WX    TMP DP  RH WIND       PRES   REMARKS
ALAMOSA        FAIR      32  29  88 S26G35    29.59R WCI  18
DEL NORTE      FAIR      35  21  57 SW20G28   29.57S WCI  24
LA VETA PASS   MOCLDY    25  23  93 SW32G61   29.64R WCI   7
SAGUACHE       FAIR      23  19  86 CALM      29.55F
$$

COZ035-036-038>040-191500-
...NORTHERN COLORADO FRONT RANGE...

CITY           SKY/WX    TMP DP  RH WIND       PRES   REMARKS
DENVER INTL AP LGT SNOW  10   7  87 NE9       29.68S FOG     WCI  -3
AURORA         LGT SNOW  10   8  91 NE5       29.68R FOG     WCI   2
FRONT RANGE AP CLOUDY    13  10  87 NE9       29.69F WCI   0
ERIE MUNI ARPT LGT SNOW  12   9  87 NE7       29.78S WCI   1
BOULDER MUN AP LGT SNOW  12  10  92 NE6       29.71S WCI   3
CENTENNIAL     LGT SNOW  11   9  92 NE7       29.65S VSB 3/4 WCI   0
BROOMFIELD     LGT SNOW  10   9  92 N6        29.69S WCI   1
FORT COLLINS   FLURRIES  10   6  84 E7        29.74S WCI  -1
LONGMONT       LGT SNOW  14  10  82 NE6       29.75S WCI   5
$$

COZ041-046-047-076>085-087-088-191500-
...PIKES PEAK/PALMER DIVIDE AND SOUTHERN FOOTHILLS...

CITY           SKY/WX    TMP DP  RH WIND       PRES   REMARKS
COLO. SPRINGS  FOG       17  16  95 S17       29.60F VSB 1/2 WCI   1
A. F. ACADEMY  CLOUDY    21  17  87 S9        29.57R WCI  10
SCHRIEVER AFB  NOT AVBL
CHEYENNE MTN   FOG       17  16  95 CALM      29.51S VSB 1/8
ELLICOTT         N/A    N/A N/A N/A CALM        N/A
FALCON         CLOUDY    14  12  92 CALM      29.59R
FORT CARSON    CLOUDY    19  17  92 S16       29.61R WCI   4
LIMON          LGT SNOW   9   8  96 N12       29.67S FOG     WCI  -6
MONUMENT HILL  LGT SNOW N/A N/A N/A E3        29.59S VSB 3/4
CANON CITY     CLOUDY    21  21 100 E7        29.66R WCI  13
WALSENBURG     NOT AVBL
TRINIDAD       FOG       22  20  92 NE10      29.63R VSB 1/4 WCI  11
$$

COZ042>045-048>051-090-091-191500-
...NORTHEAST COLORADO...

CITY           SKY/WX    TMP DP  RH WIND       PRES   REMARKS
GREELEY ARPT   FLURRIES  10   5  80 NE8       29.77S WCI  -2
AKRON          LGT SNOW   8   6  92 NE12      29.74R FOG     WCI  -7
BURLINGTON     CLOUDY    12   9  87 N14       29.75R WCI  -3
WRAY           LGT SNOW  14  10  85 N10       29.81S WCI   1
YUMA           NOT AVBL
STERLING       FLURRIES  12   9  85 NE8       29.80R WCI   1
HOLYOKE        LGT SNOW  14  10  85 N12       29.81S WCI   0
FORT MORGAN    LGT SNOW  10   5  83 MISG      29.77S
$$

COZ086-089-092>099-191500-
...SOUTHEAST COLORADO...

CITY           SKY/WX    TMP DP  RH WIND       PRES   REMARKS
PUEBLO         CLOUDY    21  16  81 E13       29.69S WCI   9
LA JUNTA       CLOUDY    20  13  74 NE14      29.73R WCI   7
LAMAR          FLURRIES  19  12  74 NE14      29.76R WCI   6
SPRINGFIELD      N/A     19  19 100 NE14      29.71R WCI   6
$$




USA.gov is the U.S. government's official web portal to all federal, state and local government web resources and services.